Year,Month,Day,Hour,Minute,Value (Times are PST for temperature in C)
2015,06,28,00,00,20.40
2015,06,28,00,01,20.40
2015,06,28,00,02,20.40
2015,06,28,00,03,20.30
2015,06,28,00,04,20.30
2015,06,28,00,05,20.30
2015,06,28,00,06,20.20
2015,06,28,00,07,20.20
2015,06,28,00,08,20.20
2015,06,28,00,09,20.20
2015,06,28,00,10,20.20
2015,06,28,00,11,20.10
2015,06,28,00,12,20.10
2015,06,28,00,13,20.10
2015,06,28,00,14,20.10
2015,06,28,00,15,20.00
2015,06,28,00,16,20.00
2015,06,28,00,17,20.00
2015,06,28,00,18,20.00
2015,06,28,00,19,19.90
2015,06,28,00,20,19.90
2015,06,28,00,21,19.90
2015,06,28,00,22,19.90
2015,06,28,00,23,19.90
2015,06,28,00,24,19.90
2015,06,28,00,25,19.90
2015,06,28,00,26,19.90
2015,06,28,00,27,19.90
2015,06,28,00,28,19.90
2015,06,28,00,29,19.90
2015,06,28,00,30,19.80
2015,06,28,00,31,19.80
2015,06,28,00,32,19.80
2015,06,28,00,33,19.70
2015,06,28,00,34,19.70
2015,06,28,00,35,19.70
2015,06,28,00,36,19.70
2015,06,28,00,37,19.60
2015,06,28,00,38,19.60
2015,06,28,00,39,19.60
2015,06,28,00,40,19.60
2015,06,28,00,41,19.60
2015,06,28,00,42,19.50
2015,06,28,00,43,19.50
2015,06,28,00,44,19.50
2015,06,28,00,45,19.50
2015,06,28,00,46,19.40
2015,06,28,00,47,19.40
2015,06,28,00,48,19.40
2015,06,28,00,49,19.40
2015,06,28,00,50,19.30
2015,06,28,00,51,19.30
2015,06,28,00,52,19.30
2015,06,28,00,53,19.30
2015,06,28,00,54,19.30
2015,06,28,00,55,19.20
2015,06,28,00,56,19.20
2015,06,28,00,57,19.20
2015,06,28,00,58,19.20
2015,06,28,00,59,19.10
2015,06,28,01,00,19.10
2015,06,28,01,01,19.20
2015,06,28,01,02,19.20
2015,06,28,01,03,19.20
2015,06,28,01,04,19.10
2015,06,28,01,05,19.10
2015,06,28,01,06,19.10
2015,06,28,01,07,19.10
2015,06,28,01,08,19.10
2015,06,28,01,09,19.10
2015,06,28,01,10,19.00
2015,06,28,01,11,19.00
2015,06,28,01,12,19.00
2015,06,28,01,13,19.00
2015,06,28,01,14,18.90
2015,06,28,01,15,18.90
2015,06,28,01,16,18.90
2015,06,28,01,17,18.90
2015,06,28,01,18,18.90
2015,06,28,01,19,18.90
2015,06,28,01,20,18.90
2015,06,28,01,21,18.90
2015,06,28,01,22,18.90
2015,06,28,01,23,18.90
2015,06,28,01,24,18.90
2015,06,28,01,25,18.90
2015,06,28,01,26,18.90
2015,06,28,01,27,18.80
2015,06,28,01,28,18.80
2015,06,28,01,29,18.80
2015,06,28,01,30,18.80
2015,06,28,01,31,18.80
2015,06,28,01,32,18.70
2015,06,28,01,33,18.70
2015,06,28,01,34,18.70
2015,06,28,01,35,18.70
2015,06,28,01,36,18.70
2015,06,28,01,37,18.70
2015,06,28,01,38,18.60
2015,06,28,01,39,18.60
2015,06,28,01,40,18.60
2015,06,28,01,41,18.60
2015,06,28,01,42,18.60
2015,06,28,01,43,18.60
2015,06,28,01,44,18.60
2015,06,28,01,45,18.60
2015,06,28,01,46,18.60
2015,06,28,01,47,18.60
2015,06,28,01,48,18.50
2015,06,28,01,49,18.50
2015,06,28,01,50,18.50
2015,06,28,01,51,18.50
2015,06,28,01,52,18.50
2015,06,28,01,53,18.50
2015,06,28,01,54,18.50
2015,06,28,01,55,18.50
2015,06,28,01,56,18.50
2015,06,28,01,57,18.50
2015,06,28,01,58,18.50
2015,06,28,01,59,18.50
2015,06,28,02,00,18.40
2015,06,28,02,01,18.40
2015,06,28,02,02,18.40
2015,06,28,02,03,18.40
2015,06,28,02,04,18.40
2015,06,28,02,05,18.40
2015,06,28,02,06,18.40
2015,06,28,02,07,18.40
2015,06,28,02,08,18.40
2015,06,28,02,09,18.40
2015,06,28,02,10,18.40
2015,06,28,02,11,18.40
2015,06,28,02,12,18.40
2015,06,28,02,13,18.40
2015,06,28,02,14,18.40
2015,06,28,02,15,18.40
2015,06,28,02,16,18.40
2015,06,28,02,17,18.40
2015,06,28,02,18,18.40
2015,06,28,02,19,18.40
2015,06,28,02,20,18.40
2015,06,28,02,21,18.40
2015,06,28,02,22,18.40
2015,06,28,02,23,18.40
2015,06,28,02,24,18.40
2015,06,28,02,25,18.40
2015,06,28,02,26,18.40
2015,06,28,02,27,18.40
2015,06,28,02,28,18.40
2015,06,28,02,29,18.40
2015,06,28,02,30,18.40
2015,06,28,02,31,18.40
2015,06,28,02,32,18.30
2015,06,28,02,33,18.30
2015,06,28,02,34,18.30
2015,06,28,02,35,18.30
2015,06,28,02,36,18.30
2015,06,28,02,37,18.30
2015,06,28,02,38,18.30
2015,06,28,02,39,18.30
2015,06,28,02,40,18.30
2015,06,28,02,41,18.30
2015,06,28,02,42,18.20
2015,06,28,02,43,18.20
2015,06,28,02,44,18.20
2015,06,28,02,45,18.20
2015,06,28,02,46,18.20
2015,06,28,02,47,18.20
2015,06,28,02,48,18.20
2015,06,28,02,49,18.20
2015,06,28,02,50,18.10
2015,06,28,02,51,18.10
2015,06,28,02,52,18.10
2015,06,28,02,53,18.10
2015,06,28,02,54,18.10
2015,06,28,02,55,18.10
2015,06,28,02,56,18.10
2015,06,28,02,57,18.10
2015,06,28,02,58,18.10
2015,06,28,02,59,18.10
2015,06,28,03,00,18.10
2015,06,28,03,01,18.10
2015,06,28,03,02,18.10
2015,06,28,03,03,18.10
2015,06,28,03,04,18.10
2015,06,28,03,05,18.00
2015,06,28,03,06,18.00
2015,06,28,03,07,18.00
2015,06,28,03,08,18.00
2015,06,28,03,09,17.90
2015,06,28,03,10,17.90
2015,06,28,03,11,17.90
2015,06,28,03,12,17.90
2015,06,28,03,13,17.90
2015,06,28,03,14,17.90
2015,06,28,03,15,17.80
2015,06,28,03,16,17.80
2015,06,28,03,17,17.80
2015,06,28,03,18,17.80
2015,06,28,03,19,17.80
2015,06,28,03,20,17.80
2015,06,28,03,21,17.80
2015,06,28,03,22,17.90
2015,06,28,03,23,17.90
2015,06,28,03,24,17.90
2015,06,28,03,25,17.90
2015,06,28,03,26,17.80
2015,06,28,03,27,17.80
2015,06,28,03,28,17.80
2015,06,28,03,29,17.80
2015,06,28,03,30,17.80
2015,06,28,03,31,17.70
2015,06,28,03,32,17.70
2015,06,28,03,33,17.70
2015,06,28,03,34,17.70
2015,06,28,03,35,17.70
2015,06,28,03,36,17.70
2015,06,28,03,37,17.70
2015,06,28,03,38,17.70
2015,06,28,03,39,17.60
2015,06,28,03,40,17.60
2015,06,28,03,41,17.60
2015,06,28,03,42,17.60
2015,06,28,03,43,17.60
2015,06,28,03,44,17.60
2015,06,28,03,45,17.50
2015,06,28,03,49,17.40
2015,06,28,03,50,17.40
2015,06,28,03,51,17.40
2015,06,28,03,52,17.40
2015,06,28,03,53,17.40
2015,06,28,03,54,17.40
2015,06,28,03,55,17.40
2015,06,28,03,56,17.40
2015,06,28,03,57,17.40
2015,06,28,03,58,17.30
2015,06,28,03,59,17.30
2015,06,28,04,00,17.30
2015,06,28,04,01,17.30
2015,06,28,04,02,17.30
2015,06,28,04,03,17.30
2015,06,28,04,04,17.30
2015,06,28,04,05,17.30
2015,06,28,04,06,17.30
2015,06,28,04,07,17.20
2015,06,28,04,08,17.20
2015,06,28,04,09,17.20
2015,06,28,04,10,17.20
2015,06,28,04,11,17.20
2015,06,28,04,12,17.20
2015,06,28,04,13,17.20
2015,06,28,04,14,17.20
2015,06,28,04,15,17.20
2015,06,28,04,16,17.20
2015,06,28,04,17,17.20
2015,06,28,04,18,17.20
2015,06,28,04,19,17.20
2015,06,28,04,20,17.20
2015,06,28,04,21,17.20
2015,06,28,04,22,17.20
2015,06,28,04,23,17.20
2015,06,28,04,24,17.20
2015,06,28,04,25,17.20
2015,06,28,04,26,17.20
2015,06,28,04,27,17.20
2015,06,28,04,28,17.20
2015,06,28,04,29,17.20
2015,06,28,04,30,17.20
2015,06,28,04,31,17.10
2015,06,28,04,32,17.10
2015,06,28,04,33,17.00
2015,06,28,04,34,17.00
2015,06,28,04,35,17.00
2015,06,28,04,36,16.90
2015,06,28,04,37,16.90
2015,06,28,04,38,16.90
2015,06,28,04,39,16.90
2015,06,28,04,40,16.90
2015,06,28,04,41,16.90
2015,06,28,04,42,16.90
2015,06,28,04,43,16.90
2015,06,28,04,44,16.90
2015,06,28,04,45,16.90
2015,06,28,04,46,16.90
2015,06,28,04,47,16.80
2015,06,28,04,48,16.80
2015,06,28,04,49,16.80
2015,06,28,04,50,16.80
2015,06,28,04,51,16.80
2015,06,28,04,52,16.80
2015,06,28,04,53,16.80
2015,06,28,04,54,16.80
2015,06,28,04,55,16.80
2015,06,28,04,56,16.80
2015,06,28,04,57,16.70
2015,06,28,04,58,16.70
2015,06,28,04,59,16.70
2015,06,28,05,00,16.70
2015,06,28,05,01,16.70
2015,06,28,05,02,16.70
2015,06,28,05,03,16.70
2015,06,28,05,04,16.70
2015,06,28,05,05,16.70
2015,06,28,05,06,16.70
2015,06,28,05,07,16.70
2015,06,28,05,08,16.70
2015,06,28,05,09,16.70
2015,06,28,05,10,16.70
2015,06,28,05,11,16.70
2015,06,28,05,12,16.70
2015,06,28,05,13,16.70
2015,06,28,05,14,16.70
2015,06,28,05,15,16.70
2015,06,28,05,16,16.70
2015,06,28,05,17,16.70
2015,06,28,05,18,16.70
2015,06,28,05,19,16.70
2015,06,28,05,20,16.70
2015,06,28,05,21,16.70
2015,06,28,05,22,16.70
2015,06,28,05,23,16.70
2015,06,28,05,24,16.70
2015,06,28,05,25,16.70
2015,06,28,05,26,16.70
2015,06,28,05,27,16.70
2015,06,28,05,28,16.70
2015,06,28,05,29,16.60
2015,06,28,05,30,16.60
2015,06,28,05,31,16.60
2015,06,28,05,32,16.60
2015,06,28,05,33,16.60
2015,06,28,05,34,16.60
2015,06,28,05,35,16.60
2015,06,28,05,36,16.60
2015,06,28,05,37,16.50
2015,06,28,05,38,16.50
2015,06,28,05,39,16.50
2015,06,28,05,40,16.50
2015,06,28,05,41,16.40
2015,06,28,05,42,16.40
2015,06,28,05,43,16.40
2015,06,28,05,44,16.40
2015,06,28,05,45,16.40
2015,06,28,05,46,16.40
2015,06,28,05,47,16.40
2015,06,28,05,48,16.40
2015,06,28,05,49,16.40
2015,06,28,05,50,16.40
2015,06,28,05,51,16.30
2015,06,28,05,52,16.40
2015,06,28,05,53,16.30
2015,06,28,05,54,16.40
2015,06,28,05,55,16.40
2015,06,28,05,56,16.40
2015,06,28,05,57,16.40
2015,06,28,05,58,16.40
2015,06,28,05,59,16.40
2015,06,28,06,00,16.40
2015,06,28,06,01,16.50
2015,06,28,06,02,16.50
2015,06,28,06,03,16.50
2015,06,28,06,04,16.60
2015,06,28,06,05,16.60
2015,06,28,06,06,16.60
2015,06,28,06,07,16.60
2015,06,28,06,08,16.70
2015,06,28,06,09,16.70
2015,06,28,06,10,16.80
2015,06,28,06,11,16.80
2015,06,28,06,12,16.80
2015,06,28,06,13,16.80
2015,06,28,06,14,16.90
2015,06,28,06,15,16.90
2015,06,28,06,16,17.00
2015,06,28,06,17,17.00
2015,06,28,06,18,17.10
2015,06,28,06,19,17.10
2015,06,28,06,20,17.20
2015,06,28,06,21,17.30
2015,06,28,06,22,17.30
2015,06,28,06,23,17.40
2015,06,28,06,24,17.40
2015,06,28,06,25,17.50
2015,06,28,06,26,17.60
2015,06,28,06,27,17.60
2015,06,28,06,28,17.60
2015,06,28,06,29,17.70
2015,06,28,06,30,17.70
2015,06,28,06,31,17.70
2015,06,28,06,32,17.70
2015,06,28,06,33,17.80
2015,06,28,06,34,17.80
2015,06,28,06,35,17.90
2015,06,28,06,36,17.90
2015,06,28,06,37,17.90
2015,06,28,06,38,18.00
2015,06,28,06,39,18.00
2015,06,28,06,40,18.00
2015,06,28,06,41,18.10
2015,06,28,06,42,18.10
2015,06,28,06,43,18.10
2015,06,28,06,44,18.10
2015,06,28,06,45,18.10
2015,06,28,06,46,18.10
2015,06,28,06,47,18.10
2015,06,28,06,48,18.20
2015,06,28,06,49,18.20
2015,06,28,06,50,18.20
2015,06,28,06,51,18.20
2015,06,28,06,52,18.30
2015,06,28,06,53,18.30
2015,06,28,06,54,18.30
2015,06,28,06,55,18.40
2015,06,28,06,56,18.40
2015,06,28,06,57,18.40
2015,06,28,06,58,18.50
2015,06,28,06,59,18.50
2015,06,28,07,00,18.60
2015,06,28,07,01,18.60
2015,06,28,07,02,18.60
2015,06,28,07,03,18.70
2015,06,28,07,04,18.70
2015,06,28,07,05,18.80
2015,06,28,07,06,18.90
2015,06,28,07,07,19.00
2015,06,28,07,08,19.10
2015,06,28,07,09,19.20
2015,06,28,07,10,19.20
2015,06,28,07,11,19.30
2015,06,28,07,12,19.40
2015,06,28,07,13,19.60
2015,06,28,07,14,19.70
2015,06,28,07,15,19.80
2015,06,28,07,16,19.90
2015,06,28,07,17,20.00
2015,06,28,07,18,20.00
2015,06,28,07,19,20.10
2015,06,28,07,20,20.20
2015,06,28,07,21,20.30
2015,06,28,07,22,20.40
2015,06,28,07,23,20.60
2015,06,28,07,24,20.70
2015,06,28,07,25,20.80
2015,06,28,07,26,20.90
2015,06,28,07,27,21.00
2015,06,28,07,28,21.10
2015,06,28,07,29,21.20
2015,06,28,07,30,21.30
2015,06,28,07,31,21.40
2015,06,28,07,32,21.60
2015,06,28,07,33,21.70
2015,06,28,07,34,21.80
2015,06,28,07,35,21.90
2015,06,28,07,36,22.00
2015,06,28,07,37,22.20
2015,06,28,07,38,22.30
2015,06,28,07,39,22.40
2015,06,28,07,40,22.50
2015,06,28,07,41,22.60
2015,06,28,07,42,22.70
2015,06,28,07,43,22.70
2015,06,28,07,44,22.70
2015,06,28,07,45,22.70
2015,06,28,07,46,22.70
2015,06,28,07,47,22.70
2015,06,28,07,48,22.70
2015,06,28,07,49,22.70
2015,06,28,07,50,22.70
2015,06,28,07,51,22.70
2015,06,28,07,52,22.70
2015,06,28,07,53,22.70
2015,06,28,07,54,22.70
2015,06,28,07,55,22.80
2015,06,28,07,56,22.80
2015,06,28,07,57,22.80
2015,06,28,07,58,22.80
2015,06,28,07,59,22.80
2015,06,28,08,00,22.80
2015,06,28,08,01,22.80
2015,06,28,08,02,22.90
2015,06,28,08,03,22.90
2015,06,28,08,04,23.00
2015,06,28,08,05,23.00
2015,06,28,08,06,23.10
2015,06,28,08,07,23.10
2015,06,28,08,08,23.20
2015,06,28,08,09,23.20
2015,06,28,08,10,23.30
2015,06,28,08,11,23.30
2015,06,28,08,12,23.40
2015,06,28,08,13,23.40
2015,06,28,08,14,23.40
2015,06,28,08,15,23.50
2015,06,28,08,16,23.60
2015,06,28,08,17,23.70
2015,06,28,08,18,23.80
2015,06,28,08,19,23.90
2015,06,28,08,20,24.00
2015,06,28,08,21,24.10
2015,06,28,08,22,24.20
2015,06,28,08,23,24.40
2015,06,28,08,24,24.50
2015,06,28,08,25,24.50
2015,06,28,08,26,24.70
2015,06,28,08,27,24.80
2015,06,28,08,28,24.90
2015,06,28,08,29,25.00
2015,06,28,08,30,25.00
2015,06,28,08,31,25.10
2015,06,28,08,32,25.20
2015,06,28,08,33,25.30
2015,06,28,08,34,25.40
2015,06,28,08,35,25.50
2015,06,28,08,36,25.60
2015,06,28,08,37,25.70
2015,06,28,08,38,25.90
2015,06,28,08,39,25.90
2015,06,28,08,40,26.10
2015,06,28,08,41,26.20
2015,06,28,08,42,26.30
2015,06,28,08,43,26.40
2015,06,28,08,44,26.50
2015,06,28,08,45,26.60
2015,06,28,08,46,26.70
2015,06,28,08,47,26.80
2015,06,28,08,48,26.90
2015,06,28,08,49,26.90
2015,06,28,08,50,27.00
2015,06,28,08,51,27.10
2015,06,28,08,52,27.20
2015,06,28,08,53,27.30
2015,06,28,08,54,27.30
2015,06,28,08,55,27.40
2015,06,28,08,56,27.40
2015,06,28,08,57,27.40
2015,06,28,08,58,27.50
2015,06,28,08,59,27.50
2015,06,28,09,00,27.50
2015,06,28,09,01,27.50
2015,06,28,09,02,27.40
2015,06,28,09,03,27.40
2015,06,28,09,04,27.30
2015,06,28,09,05,27.20
2015,06,28,09,06,27.10
2015,06,28,09,07,27.10
2015,06,28,09,08,27.00
2015,06,28,09,09,27.00
2015,06,28,09,10,27.00
2015,06,28,09,11,27.00
2015,06,28,09,12,27.00
2015,06,28,09,13,27.10
2015,06,28,09,14,27.10
2015,06,28,09,15,27.20
2015,06,28,09,16,27.30
2015,06,28,09,17,27.40
2015,06,28,09,18,27.50
2015,06,28,09,19,27.50
2015,06,28,09,20,27.60
2015,06,28,09,21,27.60
2015,06,28,09,22,27.60
2015,06,28,09,23,27.60
2015,06,28,09,24,27.60
2015,06,28,09,25,27.70
2015,06,28,09,26,27.70
2015,06,28,09,27,27.80
2015,06,28,09,28,27.80
2015,06,28,09,29,27.80
2015,06,28,09,30,27.80
2015,06,28,09,31,27.90
2015,06,28,09,32,27.90
2015,06,28,09,33,27.90
2015,06,28,09,34,28.00
2015,06,28,09,35,28.00
2015,06,28,09,36,28.10
2015,06,28,09,37,28.10
2015,06,28,09,38,28.10
2015,06,28,09,39,28.00
2015,06,28,09,40,28.00
2015,06,28,09,41,28.00
2015,06,28,09,42,28.00
2015,06,28,09,43,28.00
2015,06,28,09,44,28.10
2015,06,28,09,45,28.00
2015,06,28,09,46,28.00
2015,06,28,09,47,28.10
2015,06,28,09,48,28.10
2015,06,28,09,49,28.00
2015,06,28,09,50,27.90
2015,06,28,09,51,27.80
2015,06,28,09,52,27.60
2015,06,28,09,53,27.50
2015,06,28,09,54,27.30
2015,06,28,09,55,27.20
2015,06,28,09,56,27.10
2015,06,28,09,57,27.00
2015,06,28,09,58,27.00
2015,06,28,09,59,26.90
2015,06,28,10,00,26.80
2015,06,28,10,01,26.80
2015,06,28,10,02,26.70
2015,06,28,10,03,26.60
2015,06,28,10,04,26.60
2015,06,28,10,05,26.60
2015,06,28,10,06,26.70
2015,06,28,10,07,26.80
2015,06,28,10,08,26.90
2015,06,28,10,09,27.00
2015,06,28,10,10,27.00
2015,06,28,10,11,27.10
2015,06,28,10,12,27.10
2015,06,28,10,13,27.20
2015,06,28,10,14,27.20
2015,06,28,10,15,27.30
2015,06,28,10,16,27.30
2015,06,28,10,17,27.40
2015,06,28,10,18,27.50
2015,06,28,10,19,27.60
2015,06,28,10,20,27.70
2015,06,28,10,21,27.80
2015,06,28,10,22,27.90
2015,06,28,10,23,28.00
2015,06,28,10,24,28.10
2015,06,28,10,25,28.20
2015,06,28,10,26,28.40
2015,06,28,10,27,28.50
2015,06,28,10,28,28.60
2015,06,28,10,29,28.60
2015,06,28,10,30,28.60
2015,06,28,10,31,28.50
2015,06,28,10,32,28.50
2015,06,28,10,33,28.60
2015,06,28,10,34,28.60
2015,06,28,10,35,28.70
2015,06,28,10,36,28.70
2015,06,28,10,37,28.70
2015,06,28,10,38,28.80
2015,06,28,10,39,28.80
2015,06,28,10,40,28.90
2015,06,28,10,41,28.90
2015,06,28,10,42,28.90
2015,06,28,10,43,28.90
2015,06,28,10,44,28.90
2015,06,28,10,45,28.80
2015,06,28,10,46,28.80
2015,06,28,10,47,28.70
2015,06,28,10,48,28.70
2015,06,28,10,49,28.70
2015,06,28,10,50,28.70
2015,06,28,10,51,28.70
2015,06,28,10,52,28.60
2015,06,28,10,53,28.60
2015,06,28,10,54,28.60
2015,06,28,10,55,28.50
2015,06,28,10,56,28.40
2015,06,28,10,57,28.30
2015,06,28,10,58,28.20
2015,06,28,10,59,28.10
2015,06,28,11,00,28.00
2015,06,28,11,01,28.00
2015,06,28,11,02,27.90
2015,06,28,11,03,27.90
2015,06,28,11,04,28.00
2015,06,28,11,05,28.00
2015,06,28,11,06,28.00
2015,06,28,11,07,28.00
2015,06,28,11,08,28.10
2015,06,28,11,09,28.10
2015,06,28,11,10,28.10
2015,06,28,11,11,28.10
2015,06,28,11,12,28.00
2015,06,28,11,13,28.00
2015,06,28,11,14,28.10
2015,06,28,11,15,28.10
2015,06,28,11,16,28.10
2015,06,28,11,17,28.10
2015,06,28,11,18,28.10
2015,06,28,11,19,28.00
2015,06,28,11,20,28.00
2015,06,28,11,21,27.90
2015,06,28,11,22,27.80
2015,06,28,11,23,27.80
2015,06,28,11,24,27.80
2015,06,28,11,25,27.80
2015,06,28,11,26,27.80
2015,06,28,11,27,27.80
2015,06,28,11,28,27.80
2015,06,28,11,29,27.70
2015,06,28,11,30,27.70
2015,06,28,11,31,27.70
2015,06,28,11,32,27.70
2015,06,28,11,33,27.60
2015,06,28,11,34,27.60
2015,06,28,11,35,27.60
2015,06,28,11,36,27.70
2015,06,28,11,37,27.70
2015,06,28,11,38,27.70
2015,06,28,11,39,27.70
2015,06,28,11,40,27.70
2015,06,28,11,41,27.70
2015,06,28,11,42,27.70
2015,06,28,11,43,27.70
2015,06,28,11,44,27.60
2015,06,28,11,45,27.60
2015,06,28,11,46,27.60
2015,06,28,11,47,27.60
2015,06,28,11,48,27.60
2015,06,28,11,49,27.60
2015,06,28,11,50,27.60
2015,06,28,11,51,27.50
2015,06,28,11,52,27.40
2015,06,28,11,53,27.40
2015,06,28,11,54,27.30
2015,06,28,11,55,27.30
2015,06,28,11,56,27.30
2015,06,28,11,57,27.30
2015,06,28,11,58,27.30
2015,06,28,11,59,27.30
2015,06,28,12,00,27.40
2015,06,28,12,01,27.50
2015,06,28,12,02,27.60
2015,06,28,12,03,27.60
2015,06,28,12,04,27.60
2015,06,28,12,05,27.60
2015,06,28,12,06,27.60
2015,06,28,12,07,27.60
2015,06,28,12,08,27.60
2015,06,28,12,09,27.60
2015,06,28,12,10,27.60
2015,06,28,12,11,27.60
2015,06,28,12,12,27.70
2015,06,28,12,13,27.70
2015,06,28,12,14,27.60
2015,06,28,12,15,27.60
2015,06,28,12,16,27.60
2015,06,28,12,17,27.50
2015,06,28,12,18,27.40
2015,06,28,12,19,27.40
2015,06,28,12,20,27.30
2015,06,28,12,21,27.20
2015,06,28,12,22,27.10
2015,06,28,12,23,27.00
2015,06,28,12,24,26.80
2015,06,28,12,25,26.70
2015,06,28,12,26,26.60
2015,06,28,12,27,26.50
2015,06,28,12,28,26.40
2015,06,28,12,29,26.30
2015,06,28,12,30,26.20
2015,06,28,12,31,26.20
2015,06,28,12,32,26.10
2015,06,28,12,33,26.10
2015,06,28,12,34,26.00
2015,06,28,12,35,25.90
2015,06,28,12,36,25.90
2015,06,28,12,37,25.80
2015,06,28,12,38,25.70
2015,06,28,12,39,25.70
2015,06,28,12,40,25.60
2015,06,28,12,41,25.60
2015,06,28,12,42,25.60
2015,06,28,12,43,25.50
2015,06,28,12,44,25.50
2015,06,28,12,45,25.50
2015,06,28,12,46,25.50
2015,06,28,12,47,25.40
2015,06,28,12,48,25.40
2015,06,28,12,49,25.40
2015,06,28,12,50,25.40
2015,06,28,12,51,25.40
2015,06,28,12,52,25.40
2015,06,28,12,53,25.40
2015,06,28,12,54,25.40
2015,06,28,12,55,25.50
2015,06,28,12,56,25.50
2015,06,28,12,57,25.50
2015,06,28,12,58,25.60
2015,06,28,12,59,25.60
2015,06,28,13,00,25.70
2015,06,28,13,01,25.70
2015,06,28,13,02,25.70
2015,06,28,13,03,25.80
2015,06,28,13,04,25.80
2015,06,28,13,05,25.80
2015,06,28,13,06,25.80
2015,06,28,13,07,25.70
2015,06,28,13,08,25.70
2015,06,28,13,09,25.70
2015,06,28,13,10,25.70
2015,06,28,13,11,25.70
2015,06,28,13,12,25.70
2015,06,28,13,13,25.70
2015,06,28,13,14,25.70
2015,06,28,13,15,25.70
2015,06,28,13,16,25.80
2015,06,28,13,17,25.80
2015,06,28,13,18,25.80
2015,06,28,13,19,25.80
2015,06,28,13,20,25.80
2015,06,28,13,21,25.80
2015,06,28,13,22,25.80
2015,06,28,13,23,25.80
2015,06,28,13,24,25.90
2015,06,28,13,25,25.90
2015,06,28,13,26,25.90
2015,06,28,13,27,25.90
2015,06,28,13,28,25.90
2015,06,28,13,29,25.90
2015,06,28,13,30,25.90
2015,06,28,13,31,25.90
2015,06,28,13,32,25.90
2015,06,28,13,33,25.90
2015,06,28,13,34,25.90
2015,06,28,13,35,26.00
2015,06,28,13,36,26.00
2015,06,28,13,37,26.10
2015,06,28,13,38,26.10
2015,06,28,13,39,26.20
2015,06,28,13,40,26.20
2015,06,28,13,41,26.20
2015,06,28,13,42,26.20
2015,06,28,13,43,26.20
2015,06,28,13,44,26.20
2015,06,28,13,45,26.20
2015,06,28,13,46,26.10
2015,06,28,13,47,26.20
2015,06,28,13,48,26.20
2015,06,28,13,49,26.20
2015,06,28,13,50,26.30
2015,06,28,13,51,26.30
2015,06,28,13,52,26.30
2015,06,28,13,53,26.30
2015,06,28,13,54,26.30
2015,06,28,13,55,26.30
2015,06,28,13,56,26.20
2015,06,28,13,57,26.20
2015,06,28,13,58,26.20
2015,06,28,13,59,26.10
2015,06,28,14,00,26.10
2015,06,28,14,01,26.00
2015,06,28,14,02,25.90
2015,06,28,14,03,25.90
2015,06,28,14,04,25.90
2015,06,28,14,05,25.90
2015,06,28,14,06,25.90
2015,06,28,14,07,25.90
2015,06,28,14,08,25.90
2015,06,28,14,09,25.90
2015,06,28,14,10,25.90
2015,06,28,14,11,25.90
2015,06,28,14,12,25.90
2015,06,28,14,13,25.90
2015,06,28,14,14,25.90
2015,06,28,14,15,25.90
2015,06,28,14,16,26.00
2015,06,28,14,17,26.00
2015,06,28,14,18,26.00
2015,06,28,14,19,26.00
2015,06,28,14,20,26.10
2015,06,28,14,21,26.10
2015,06,28,14,22,26.10
2015,06,28,14,23,26.10
2015,06,28,14,24,26.10
2015,06,28,14,25,26.10
2015,06,28,14,26,26.10
2015,06,28,14,27,26.10
2015,06,28,14,28,26.10
2015,06,28,14,29,26.10
2015,06,28,14,30,26.10
2015,06,28,14,31,26.10
2015,06,28,14,32,26.10
2015,06,28,14,33,26.10
2015,06,28,14,34,26.10
2015,06,28,14,35,26.20
2015,06,28,14,36,26.20
2015,06,28,14,37,26.20
2015,06,28,14,38,26.20
2015,06,28,14,39,26.20
2015,06,28,14,40,26.20
2015,06,28,14,41,26.20
2015,06,28,14,42,26.30
2015,06,28,14,43,26.20
2015,06,28,14,44,26.20
2015,06,28,14,45,26.10
2015,06,28,14,46,26.00
2015,06,28,14,47,26.00
2015,06,28,14,48,25.90
2015,06,28,14,49,25.90
2015,06,28,14,50,25.90
2015,06,28,14,51,25.90
2015,06,28,14,52,25.90
2015,06,28,14,53,26.00
2015,06,28,14,54,26.00
2015,06,28,14,55,26.10
2015,06,28,14,56,26.10
2015,06,28,14,57,26.20
2015,06,28,14,58,26.20
2015,06,28,14,59,26.20
2015,06,28,15,00,26.30
2015,06,28,15,01,26.30
2015,06,28,15,02,26.30
2015,06,28,15,03,26.30
2015,06,28,15,04,26.30
2015,06,28,15,05,26.30
2015,06,28,15,06,26.30
2015,06,28,15,07,26.30
2015,06,28,15,08,26.20
2015,06,28,15,09,26.20
2015,06,28,15,10,26.10
2015,06,28,15,11,26.10
2015,06,28,15,12,26.00
2015,06,28,15,13,25.90
2015,06,28,15,14,25.90
2015,06,28,15,15,25.80
2015,06,28,15,16,25.80
2015,06,28,15,17,25.70
2015,06,28,15,18,25.70
2015,06,28,15,19,25.60
2015,06,28,15,20,25.60
2015,06,28,15,21,25.50
2015,06,28,15,22,25.40
2015,06,28,15,23,25.30
2015,06,28,15,24,25.30
2015,06,28,15,25,25.20
2015,06,28,15,26,25.20
2015,06,28,15,27,25.20
2015,06,28,15,28,25.10
2015,06,28,15,29,25.10
2015,06,28,15,30,25.10
2015,06,28,15,31,25.10
2015,06,28,15,32,25.00
2015,06,28,15,33,25.00
2015,06,28,15,34,24.90
2015,06,28,15,35,24.90
2015,06,28,15,36,24.90
2015,06,28,15,37,24.90
2015,06,28,15,38,24.80
2015,06,28,15,39,24.80
2015,06,28,15,40,24.80
2015,06,28,15,41,24.70
2015,06,28,15,42,24.70
2015,06,28,15,43,24.70
2015,06,28,15,44,24.60
2015,06,28,15,45,24.50
2015,06,28,15,46,24.50
2015,06,28,15,47,24.40
2015,06,28,15,48,24.30
2015,06,28,15,49,24.20
2015,06,28,15,50,24.10
2015,06,28,15,51,24.00
2015,06,28,15,52,23.90
2015,06,28,15,53,23.90
2015,06,28,15,54,23.80
2015,06,28,15,55,23.80
2015,06,28,15,56,23.80
2015,06,28,15,57,23.80
2015,06,28,15,58,23.80
2015,06,28,15,59,23.80
2015,06,28,16,00,23.80
2015,06,28,16,01,23.80
2015,06,28,16,02,23.80
2015,06,28,16,03,23.90
2015,06,28,16,04,23.90
2015,06,28,16,05,23.90
2015,06,28,16,06,24.00
2015,06,28,16,07,24.00
2015,06,28,16,08,24.10
2015,06,28,16,09,24.10
2015,06,28,16,10,24.10
2015,06,28,16,11,24.10
2015,06,28,16,12,24.10
2015,06,28,16,13,24.10
2015,06,28,16,14,24.20
2015,06,28,16,15,24.20
2015,06,28,16,16,24.10
2015,06,28,16,17,24.10
2015,06,28,16,18,24.10
2015,06,28,16,19,24.00
2015,06,28,16,20,24.00
2015,06,28,16,21,23.90
2015,06,28,16,22,23.90
2015,06,28,16,23,23.90
2015,06,28,16,24,23.90
2015,06,28,16,25,23.90
2015,06,28,16,26,23.90
2015,06,28,16,27,23.90
2015,06,28,16,28,23.90
2015,06,28,16,29,23.90
2015,06,28,16,30,23.90
2015,06,28,16,31,23.90
2015,06,28,16,32,23.90
2015,06,28,16,33,23.90
2015,06,28,16,34,23.90
2015,06,28,16,35,23.90
2015,06,28,16,36,23.90
2015,06,28,16,37,23.90
2015,06,28,16,38,24.00
2015,06,28,16,39,24.00
2015,06,28,16,40,24.00
2015,06,28,16,41,24.00
2015,06,28,16,42,24.00
2015,06,28,16,43,24.00
2015,06,28,16,44,24.00
2015,06,28,16,45,24.10
2015,06,28,16,46,24.10
2015,06,28,16,47,24.10
2015,06,28,16,48,24.20
2015,06,28,16,49,24.20
2015,06,28,16,50,24.30
2015,06,28,16,51,24.30
2015,06,28,16,52,24.30
2015,06,28,16,53,24.30
2015,06,28,16,54,24.30
2015,06,28,16,55,24.30
2015,06,28,16,56,24.30
2015,06,28,16,57,24.30
2015,06,28,16,58,24.20
2015,06,28,16,59,24.10
2015,06,28,17,00,24.10
2015,06,28,17,01,24.00
2015,06,28,17,02,23.90
2015,06,28,17,03,23.80
2015,06,28,17,04,23.80
2015,06,28,17,05,23.70
2015,06,28,17,06,23.60
2015,06,28,17,07,23.50
2015,06,28,17,08,23.50
2015,06,28,17,09,23.40
2015,06,28,17,10,23.40
2015,06,28,17,11,23.30
2015,06,28,17,12,23.30
2015,06,28,17,13,23.30
2015,06,28,17,14,23.30
2015,06,28,17,15,23.30
2015,06,28,17,16,23.40
2015,06,28,17,17,23.40
2015,06,28,17,18,23.50
2015,06,28,17,19,23.50
2015,06,28,17,20,23.60
2015,06,28,17,21,23.60
2015,06,28,17,22,23.50